When you browse on this site, cookies collect data to enhance your experience and personalize the content and advertising you see.
Visit our Privacy Policy to learn more. By continuing to use the site, you agree to this use of cookies and data.
  • In Sweden
  • List of Countries
  • For 7 days
  • Water Temperature
  • Satellite Maps
  • Weather Map
  • Weather Widgets
  • user-avatar
    Login

    Hourly Weather Bigadiç

    Today, 20 January, Sunday

    Time Temperature Precipitation Wind Pressure Humidity
    00:00 +7°C° 0 mm 2 mps 748 mmHg 82%
    01:00 +7°C° 0 mm 2 mps 748 mmHg 82%
    02:00 +7°C° 0 mm 2 mps 748 mmHg 83%
    03:00 +6°C° 0 mm 2 mps 748 mmHg 83%
    04:00 +6°C° 0 mm 2 mps 748 mmHg 83%
    05:00 +6°C° 0 mm 2 mps 747 mmHg 82%
    06:00 +6°C° 0 mm 2 mps 747 mmHg 82%
    07:00 +6°C° 0 mm 2 mps 747 mmHg 81%
    08:00 +7°C° 0 mm 3 mps 747 mmHg 80%
    09:00 +9°C° 0 mm 3 mps 747 mmHg 76%
    10:00 +10°C° 0 mm 3 mps 747 mmHg 72%
    11:00 +12°C° 0 mm 3 mps 747 mmHg 68%
    12:00 +12°C° 0 mm 4 mps 747 mmHg 68%
    13:00 +12°C° 0 mm 4 mps 746 mmHg 67%
    14:00 +13°C° 0 mm 5 mps 746 mmHg 67%
    15:00 +12°C° 0 mm 4 mps 746 mmHg 71%
    16:00 +11°C° 0 mm 3 mps 745 mmHg 75%
    17:00 +10°C° 0 mm 3 mps 745 mmHg 79%
    18:00 +9°C° 0 mm 3 mps 745 mmHg 80%
    19:00 +9°C° 0 mm 3 mps 745 mmHg 81%
    20:00 +8°C° 0 mm 3 mps 746 mmHg 82%
    21:00 +8°C° 0 mm 2 mps 746 mmHg 83%
    22:00 +8°C° 0 mm 2 mps 746 mmHg 84%
    23:00 +8°C° 0 mm 2 mps 746 mmHg 85%

    Tomorrow, 21 January, Monday

    Time Temperature Precipitation Wind Pressure Humidity
    00:00 +8°C° 0.2 mm 2 mps 745 mmHg 86%
    01:00 +8°C° 0.2 mm 2 mps 745 mmHg 87%
    02:00 +8°C° 0.2 mm 2 mps 745 mmHg 88%
    03:00 +8°C° 0.3 mm 2 mps 745 mmHg 88%
    04:00 +8°C° 0.3 mm 2 mps 745 mmHg 88%
    05:00 +8°C° 0.3 mm 2 mps 745 mmHg 88%
    06:00 +8°C° 0.7 mm 2 mps 745 mmHg 89%
    07:00 +8°C° 0.7 mm 1 mps 745 mmHg 89%
    08:00 +8°C° 0.7 mm 1 mps 745 mmHg 89%
    09:00 +9°C° 0.2 mm 1 mps 745 mmHg 85%
    10:00 +10°C° 0.2 mm 1 mps 745 mmHg 81%
    11:00 +11°C° 0.2 mm 1 mps 745 mmHg 77%
    12:00 +12°C° 0 mm 1 mps 745 mmHg 74%
    13:00 +12°C° 0 mm 1 mps 745 mmHg 72%
    14:00 +13°C° 0 mm 2 mps 745 mmHg 70%
    15:00 +12°C° 0 mm 2 mps 745 mmHg 73%
    16:00 +10°C° 0 mm 2 mps 745 mmHg 77%
    17:00 +9°C° 0 mm 2 mps 745 mmHg 80%
    18:00 +10°C° 0 mm 1 mps 745 mmHg 84%
    19:00 +9°C° 0 mm 1 mps 746 mmHg 87%
    20:00 +8°C° 0 mm 1 mps 746 mmHg 90%
    21:00 +8°C° 0 mm 1 mps 746 mmHg 91%
    22:00 +7°C° 0 mm 1 mps 746 mmHg 92%
    23:00 +7°C° 0 mm 1 mps 746 mmHg 92%

    Day after tomorrow, 22 January, Tuesday

    Time Temperature Precipitation Wind Pressure Humidity
    00:00 +7°C° 0 mm 1 mps 746 mmHg 92%
    01:00 +7°C° 0 mm 1 mps 747 mmHg 92%
    02:00 +6°C° 0 mm 1 mps 747 mmHg 91%
    03:00 +6°C° 0 mm 1 mps 746 mmHg 91%
    04:00 +6°C° 0 mm 1 mps 746 mmHg 90%
    05:00 +6°C° 0 mm 1 mps 746 mmHg 90%
    06:00 +6°C° 0 mm 1 mps 746 mmHg 88%
    07:00 +6°C° 0 mm 1 mps 746 mmHg 87%
    08:00 +6°C° 0 mm 1 mps 746 mmHg 86%
    09:00 +8°C° 0 mm 1 mps 746 mmHg 81%
    10:00 +9°C° 0 mm 1 mps 746 mmHg 76%
    11:00 +11°C° 0 mm 1 mps 746 mmHg 71%
    12:00 +12°C° 0 mm 1 mps 746 mmHg 70%
    13:00 +12°C° 0 mm 1 mps 745 mmHg 68%
    14:00 +13°C° 0 mm 2 mps 745 mmHg 67%
    15:00 +12°C° 0 mm 2 mps 744 mmHg 71%
    16:00 +12°C° 0 mm 2 mps 744 mmHg 75%
    17:00 +11°C° 0 mm 1 mps 744 mmHg 79%
    18:00 +9°C° 0 mm 2 mps 744 mmHg 81%
    19:00 +8°C° 0 mm 2 mps 744 mmHg 83%
    20:00 +8°C° 0 mm 2 mps 744 mmHg 85%
    21:00 +8°C° 0 mm 3 mps 744 mmHg 85%
    22:00 +7°C° 0 mm 3 mps 744 mmHg 85%
    23:00 +7°C° 0 mm 3 mps 744 mmHg 85%

    23 January, Wednesday

    Time Temperature Precipitation Wind Pressure Humidity
    00:00 +7°C° 0 mm 3 mps 744 mmHg 85%
    01:00 +7°C° 0 mm 3 mps 743 mmHg 85%
    02:00 +7°C° 0 mm 3 mps 743 mmHg 86%
    03:00 +6°C° 0 mm 4 mps 743 mmHg 85%
    04:00 +6°C° 0 mm 4 mps 742 mmHg 85%
    05:00 +6°C° 0 mm 4 mps 742 mmHg 84%
    06:00 +6°C° 0 mm 4 mps 742 mmHg 82%
    07:00 +7°C° 0 mm 4 mps 742 mmHg 80%
    08:00 +7°C° 0 mm 4 mps 742 mmHg 78%
    09:00 +8°C° 0 mm 5 mps 742 mmHg 74%
    10:00 +10°C° 0 mm 6 mps 742 mmHg 71%
    11:00 +12°C° 0 mm 7 mps 742 mmHg 67%
    12:00 +12°C° 0 mm 7 mps 741 mmHg 66%
    13:00 +12°C° 0 mm 7 mps 741 mmHg 66%
    14:00 +14°C° 0 mm 7 mps 741 mmHg 65%
    15:00 +13°C° 0 mm 6 mps 740 mmHg 69%
    16:00 +12°C° 0 mm 5 mps 740 mmHg 73%
    17:00 +11°C° 0 mm 4 mps 740 mmHg 77%
    18:00 +11°C° 0.1 mm 3 mps 740 mmHg 78%
    19:00 +10°C° 0.1 mm 3 mps 740 mmHg 80%
    20:00 +10°C° 0.1 mm 3 mps 741 mmHg 81%
    21:00 +10°C° 0.1 mm 3 mps 740 mmHg 81%
    22:00 +10°C° 0.1 mm 3 mps 740 mmHg 81%
    23:00 +9°C° 0.1 mm 3 mps 740 mmHg 81%

    24 January, Thursday

    Time Temperature Precipitation Wind Pressure Humidity
    00:00 +9°C° 0 mm 3 mps 739 mmHg 80%
    01:00 +9°C° 0 mm 2 mps 739 mmHg 79%
    02:00 +8°C° 0 mm 2 mps 738 mmHg 79%
    03:00 +8°C° 0 mm 2 mps 738 mmHg 79%
    04:00 +8°C° 0 mm 2 mps 737 mmHg 79%
    05:00 +7°C° 0 mm 2 mps 737 mmHg 80%
    06:00 +8°C° 0 mm 3 mps 736 mmHg 79%
    07:00 +8°C° 0 mm 3 mps 736 mmHg 79%
    08:00 +8°C° 0 mm 3 mps 736 mmHg 78%
    09:00 +10°C° 0 mm 3 mps 736 mmHg 71%
    10:00 +12°C° 0 mm 3 mps 735 mmHg 64%
    11:00 +14°C° 0 mm 4 mps 735 mmHg 57%
    12:00 +14°C° 0 mm 4 mps 734 mmHg 55%
    13:00 +15°C° 0 mm 4 mps 733 mmHg 53%
    14:00 +15°C° 0 mm 4 mps 733 mmHg 51%
    15:00 +14°C° 0 mm 4 mps 733 mmHg 56%
    16:00 +13°C° 0 mm 4 mps 732 mmHg 61%
    17:00 +12°C° 0 mm 3 mps 732 mmHg 67%
    18:00 +11°C° 0 mm 3 mps 733 mmHg 67%
    19:00 +10°C° 0 mm 3 mps 733 mmHg 68%
    20:00 +10°C° 0 mm 3 mps 733 mmHg 69%
    21:00 +10°C° 0 mm 4 mps 734 mmHg 71%
    22:00 +10°C° 0 mm 4 mps 734 mmHg 74%
    23:00 +9°C° 0 mm 5 mps 735 mmHg 76%

    25 January, Friday

    Time Temperature Precipitation Wind Pressure Humidity
    00:00 +9°C° 0 mm 5 mps 736 mmHg 79%
    01:00 +9°C° 0 mm 5 mps 736 mmHg 82%
    02:00 +8°C° 0 mm 5 mps 736 mmHg 84%
    03:00 +8°C° 0 mm 4 mps 736 mmHg 84%
    04:00 +8°C° 0 mm 4 mps 736 mmHg 84%
    05:00 +8°C° 0 mm 4 mps 736 mmHg 84%
    06:00 +7°C° 0 mm 4 mps 737 mmHg 83%
    07:00 +7°C° 0 mm 4 mps 737 mmHg 82%
    08:00 +7°C° 0 mm 4 mps 737 mmHg 81%
    09:00 +9°C° 0 mm 6 mps 737 mmHg 74%
    10:00 +11°C° 0 mm 8 mps 737 mmHg 67%
    11:00 +13°C° 0 mm 10 mps 736 mmHg 61%
    12:00 +13°C° 0 mm 10 mps 736 mmHg 61%
    13:00 +12°C° 0 mm 10 mps 735 mmHg 61%
    14:00 +12°C° 0 mm 10 mps 735 mmHg 61%
    15:00 +11°C° 1.4 mm 8 mps 735 mmHg 69%
    16:00 +10°C° 1.4 mm 6 mps 734 mmHg 77%
    17:00 +8°C° 1.4 mm 5 mps 734 mmHg 85%
    18:00 +8°C° 2.2 mm 4 mps 734 mmHg 87%
    19:00 +9°C° 2.2 mm 3 mps 734 mmHg 89%
    20:00 +8°C° 2.2 mm 2 mps 734 mmHg 91%
    21:00 +8°C° 0.2 mm 2 mps 735 mmHg 90%
    22:00 +8°C° 0.2 mm 3 mps 735 mmHg 89%
    23:00 +8°C° 0.2 mm 3 mps 735 mmHg 88%
    Show more